Location: Newark
(3.0500°N, 36.0167°E)
Time: 01:15:11
(UTC+00:00)

Transit 2A Rocket - Pass Details

Date: 25 August 2019
Orbit: 592 x 911 km, 66.7° (Epoch: 20 September)

Event Time Altitude Azimuth Distance (km) Brightness Sun altitude
Rises 03:07:45 0° 321° (NW) 2,813 7.7 -6.9°
Reaches altitude 10° 03:10:12 10° 309° (NW) 1,914 6.7 -6.3°
Maximum altitude 03:13:52 28° 250° (WSW) 1,133 5.4 -5.4°
Drops below altitude 10° 03:17:38 10° 191° (S) 1,970 6.9 -4.5°
Sets 03:20:12 0° 179° (S) 2,913 7.9 -3.8°
